STARLINK-37794, 69310

Orbit data source: Space-Track

STARLINK-37794, 69310 is a payload satellite owned by SpaceX/Seattle (US) in SSO that was launched on Sat, 30 May 2026 UTC via an FALCON 9 launch vehicle from the Air Force Western Test Range (AFWTR). Payload-class satellites include a variety of spacecraft equipped with specific instruments for various scientific and technological missions. These include communications satellites like Starlink; space stations such as the ISS; scientific satellites like the Hubble; Earth observation satellites from companies like Planet Labs, Umbra, and HawkEye 360; GPS; miniature CubeSats for education and research; and military/defense satellites.

Loading next visibility...
Identifier
69310, 2026-119Q
Orbit
SSO
Country
Flag of USUS
Related business
Manufacturer
SpaceX/Seattle
Mission
Operational spacecraft
Bus & Motor
STARLINK V2MO, Unknown motor
Mass
575 kg wet, ~530 kg dry
Launch date (UTC)
2026-05-30 (2 months ago)
Launch vehicle
FALCON 9
Launch site
Air Force Western Test Range (AFWTR)
Object type
Payload
Rocket body
Debris
Shape & HBR
Unknown shape, 17.7 m
Radar Cross Section
Large (>1 m²)

Expand to show TLE details & history
Last TLE update: 17 hours ago

TLE from 17 hours ago
0 STARLINK-37794
1 69310U 26119Q   26202.02194440  .00013803  00000-0  42902-3 0  9999
2 69310  97.2863 227.6641 0000395 151.4197 208.7067 15.33451433  9246
Epoch: 2026-07-21T00:31Z
TLE epoch observation values (Epoch: 2026-07-21T00:31:35.996Z)
Latitude
-0.00005°
Longitude
-79.03349°
Altitude
468.873 km
Speed
7.632 km/s
True Right ascension
15h 10m 39s
True Declination
0° 00' 00"
Sunlit
Object was in daylight at epoch
Visualization orbit readout
Latitude
Unknown
Longitude
Unknown
Altitude
Unknown
Speed
Unknown
Apparent Right ascension
Unknown
Apparent Declination
Unknown
Sunlit
N/A
Visualization observer readout
Local Sidereal Time
06:17:07
Azimuth
Unknown
Elevation
Unknown
Doppler factor
Unknown
Orbital elements
Apogee altitude
462.737 km
Perigee altitude
462.197 km
Semi-major axis
6,840.604 km
Eccentricity
0.00004
Inclination
97.2863°
RAAN
227.6641°
Arg. of periapsis
151.4197°
True anomaly
208.70453°
Mean anomaly
208.7067°
Eccentric anomaly
208.70561°
Mean motion
3.8362 °/min
Orbital period
93.84 mins
BSTAR
0.00042902
Loading maneuver chart data...
Computing Atmospheric mass density...
Loading historical data...
Loading historical data...
Loading historical data...
Loading historical data...
Loading historical data...
Loading historical data...
Loading historical data...

Documentation

Showing up to 5 results
|